Weather History for KLGA - January, 2015

Change the Weather History Date:

Thursday, January 8, 2015

  Actual Average Record
Temperature  
Mean Temperature 15 °F 33 °F  
Max Temperature 21 °F 39 °F 64 °F (2008)
Min Temperature 8 °F 27 °F 3 °F (1968)
Degree Days  
Heating Degree Days 50 32  
Month to date heating degree days 274 252  
Since 1 July heating degree days 1777 1858  
Cooling Degree Days 0 0  
Month to date cooling degree days 0 0  
Year to date cooling degree days 0 0  
Moisture  
Dew Point -3 °F    
Average Humidity 51    
Maximum Humidity 58    
Minimum Humidity 43    
Precipitation  
Precipitation 0.00 in 0.10 in 1.19 in (2007)
Month to date precipitation 1.03 0.82  
Year to date precipitation 1.03 0.82  
Snow  
Snow 0.00 in 0.30 in 6.90 in (1988)
Month to date snowfall 1.0 1.9  
Since 1 July snowfall 2.7 7.4  
Snow Depth T in    
Sea Level Pressure  
Sea Level Pressure 30.35 in    
Wind  
Wind Speed 14 mph (West)    
Max Wind Speed 28 mph    
Max Gust Speed 36 mph    
Visibility 10 miles    
Events      
T = Trace of Precipitation, MM = Missing Value Source: NWS Daily Summary

Daily Weather History Graph

Daily Weather History Graph

Search for Another Location

Airport or City:

Trip Planner

Search our weather history database for the weather conditions in past years. The results will help you decide how hot, cold, wet, or windy it might be!

Date:

Astronomy

Jan. 08, 2015 Rise Set
Actual Time 7:19 AM EST 4:44 PM EST
Civil Twilight 6:49 AM EST 5:15 PM EST
Nautical Twilight 6:14 AM EST 5:49 PM EST
Astronomical Twilight 5:41 AM EST 6:22 PM EST
Moon 8:23 PM EST (1/8) 9:02 AM EST (1/8)
Length of Visible Light 10h 26m
Length of Day
9h 25m
Waning Gibbous, 89% of the Moon is Illuminated
Jan 8
Waning Gibbous
Jan 13
Last Quarter
Jan 20
New
Jan 26
First Quarter
Feb 3
Full

Hourly Weather History & Observations

Time (EST) Temp. Windchill Dew Point Humidity Pressure Visibility Wind Dir Wind Speed Gust Speed Precip Events Conditions
12:51 AM 10.0 °F -9.1 °F -5.1 °F 51% 30.30 in 10.0 mi NW 20.7 mph 31.1 mph N/A   Partly Cloudy
1:51 AM 9.0 °F -11.0 °F -6.0 °F 51% 30.32 in 10.0 mi NW 21.9 mph 33.4 mph N/A   Clear
2:51 AM 10.0 °F -7.6 °F -5.1 °F 51% 30.33 in 10.0 mi NW 17.3 mph 26.5 mph N/A   Clear
3:51 AM 8.1 °F -6.2 °F -7.1 °F 50% 30.34 in 10.0 mi NW 10.4 mph 25.3 mph N/A   Clear
4:51 AM 9.0 °F -7.3 °F -6.0 °F 51% 30.36 in 10.0 mi WNW 13.8 mph 19.6 mph N/A   Clear
5:51 AM 9.0 °F -8.5 °F -5.1 °F 53% 30.39 in 10.0 mi WNW 16.1 mph 23.0 mph N/A   Clear
6:51 AM 10.0 °F -2.9 °F -5.1 °F 51% 30.41 in 10.0 mi West 9.2 mph 20.7 mph N/A   Clear
7:51 AM 10.0 °F -7.1 °F -5.1 °F 51% 30.43 in 10.0 mi West 16.1 mph 23.0 mph N/A   Partly Cloudy
8:51 AM 10.9 °F -6.5 °F -2.9 °F 54% 30.44 in 10.0 mi WSW 17.3 mph 21.9 mph N/A   Partly Cloudy
9:51 AM 12.9 °F -2.8 °F -2.0 °F 51% 30.43 in 10.0 mi West 15.0 mph 24.2 mph N/A   Partly Cloudy
10:51 AM 15.1 °F -1.1 °F -2.0 °F 47% 30.42 in 10.0 mi West 17.3 mph - N/A   Partly Cloudy
11:51 AM 17.1 °F 3.0 °F -2.0 °F 43% 30.38 in 10.0 mi West 13.8 mph - N/A   Partly Cloudy
12:51 PM 19.0 °F 6.8 °F -0.9 °F 42% 30.35 in 10.0 mi West 11.5 mph 23.0 mph N/A   Partly Cloudy
1:51 PM 19.9 °F 6.7 °F -0.0 °F 42% 30.35 in 10.0 mi WSW 13.8 mph - N/A   Partly Cloudy
2:51 PM 19.9 °F 6.7 °F -0.9 °F 40% 30.35 in 10.0 mi West 13.8 mph 21.9 mph N/A   Scattered Clouds
3:51 PM 19.9 °F 7.9 °F -0.0 °F 42% 30.34 in 10.0 mi West 11.5 mph 19.6 mph N/A   Mostly Cloudy
4:51 PM 19.0 °F 6.8 °F 1.0 °F 46% 30.33 in 10.0 mi WSW 11.5 mph - N/A   Mostly Cloudy
5:51 PM 19.0 °F 7.5 °F 1.0 °F 46% 30.33 in 10.0 mi SW 10.4 mph - N/A   Mostly Cloudy
6:51 PM 18.0 °F 4.8 °F -0.0 °F 45% 30.33 in 10.0 mi SW 12.7 mph - N/A   Scattered Clouds
7:51 PM 17.1 °F 2.5 °F -0.9 °F 45% 30.33 in 10.0 mi WSW 15.0 mph - N/A   Scattered Clouds
8:51 PM 17.1 °F 3.6 °F -2.9 °F 41% 30.31 in 10.0 mi WSW 12.7 mph 23.0 mph N/A   Mostly Cloudy
9:51 PM 17.1 °F 3.0 °F -2.0 °F 43% 30.30 in 10.0 mi WSW 13.8 mph 20.7 mph N/A   Mostly Cloudy
10:51 PM 17.1 °F 3.6 °F -0.9 °F 45% 30.27 in 10.0 mi SSW 12.7 mph - N/A   Overcast
11:51 PM 18.0 °F 2.6 °F -0.0 °F 45% 30.22 in 10.0 mi SSW 17.3 mph 25.3 mph N/A   Overcast